Location: Okie-Tex Star Party
(36.8978°N, 102.9520°W)
Time: 02:38:30
(UTC-05:00)

Amateur Radio Satellites - All Passes

Search period start: 28 August 2015 02:08
Search period end: 29 August 2015 02:08
Location: Okie-Tex Star Party, 36.8978°N, 102.9520°W

Satellite Date Start Highest point End Downlink Frequencies (MHz)
Time Altitude Azimuth
Oscar 19 28 Aug 02:12:13 02:15:15 16° 91° (E) 02:18:31 437.125/150
Cosmos 2504 28 Aug 02:15:16 02:22:35 37° 287° (WNW) 02:30:12 435.465 / 435.565
BEESAT 3 28 Aug 02:20:29 02:24:31 75° 59° (ENE) 02:28:28 437.485
BEESAT 2 28 Aug 02:25:52 02:29:54 63° 58° (ENE) 02:33:51 435.950
AIST 2 28 Aug 02:32:35 02:35:11 16° 46° (NE) 02:37:54 435.215
RS-15 28 Aug 02:33:53 02:45:24 55° 51° (NE) 02:57:23 29.354- 29.394
ITUPSAT 1 28 Aug 02:34:55 02:39:30 49° 73° (ENE) 02:44:07 437.325
GONETS M04 28 Aug 02:35:14 02:36:34 11° 78° (ENE) 02:38:45
PCSat 28 Aug 02:38:26 02:41:29 16° 106° (ESE) 02:44:49 145.827
DANDE 28 Aug 02:43:14 02:46:02 33° 286° (WNW) 02:49:32 436.750
CUSAT 1 28 Aug 02:48:03 02:50:44 19° 294° (WNW) 02:53:50 437.405
SO-50 28 Aug 02:49:51 02:54:22 46° 115° (ESE) 02:59:03 436.795
TISAT 1 28 Aug 02:51:34 02:54:08 15° 268° (W) 02:56:31 437.305
ITAMSAT 1 28 Aug 03:02:55 03:04:03 11° 88° (E) 03:05:34 435.822/435.867
BEESAT 28 Aug 03:10:51 03:15:37 67° 259° (W) 03:20:23 436.000
SWISSCUBE 28 Aug 03:36:45 03:41:03 32° 263° (W) 03:45:18 437.505
STARS 28 Aug 03:48:51 03:52:32 27° 70° (ENE) 03:56:18 437.465
Oscar 19 28 Aug 03:49:56 03:55:00 54° 287° (WNW) 04:00:02 437.125/150
KKS-1 28 Aug 03:55:41 04:00:01 56° 74° (ENE) 04:04:25 437.445
Gurwin Techsat 1B 28 Aug 03:55:43 04:00:52 51° 99° (E) 04:06:02 435.225
AIST 2 28 Aug 04:10:02 04:14:02 46° 244° (WSW) 04:17:58 435.215
ITUPSAT 1 28 Aug 04:14:50 04:17:43 15° 269° (W) 04:20:22 437.325
PCSat 28 Aug 04:19:07 04:24:28 60° 300° (WNW) 04:29:50 145.827
GONETS M04 28 Aug 04:23:31 04:32:06 73° 94° (E) 04:40:47
Cosmos 2499 28 Aug 04:26:16 04:30:59 17° 80° (E) 04:36:22 435.465 / 435.565
AO-7 28 Aug 04:31:03 04:36:33 20° 91° (E) 04:42:29 29.400- 29.500
SO-50 28 Aug 04:31:24 04:35:10 22° 313° (NW) 04:38:55 436.795
ITAMSAT 1 28 Aug 04:39:02 04:44:12 75° 286° (WNW) 04:49:23 435.822/435.867
RS-15 28 Aug 04:46:44 04:57:47 44° 251° (WSW) 05:08:52 29.354- 29.394
JAS-2 28 Aug 04:49:49 04:57:00 73° 101° (E) 05:03:18 435.910
VERMONT LUNAR 28 Aug 05:00:02 05:00:39 11° 144° (SE) 05:01:21 437.305
HORYU 2 28 Aug 05:00:46 05:04:04 21° 94° (E) 05:07:28 437.375
MOZHAYETS 4 28 Aug 05:13:17 05:17:45 52° 74° (ENE) 05:22:15
STARS 28 Aug 05:25:21 05:28:57 24° 265° (W) 05:32:28 437.465
KKS-1 28 Aug 05:35:31 05:37:05 11° 271° (W) 05:38:23 437.445
Gurwin Techsat 1B 28 Aug 05:36:48 05:40:30 19° 294° (WNW) 05:44:01 435.225
Cosmos 2499 28 Aug 06:14:48 06:23:04 85° 277° (W) 06:31:55 435.465 / 435.565
AO-7 28 Aug 06:21:56 06:30:15 76° 289° (WNW) 06:38:29 29.400- 29.500
GONETS M04 28 Aug 06:23:25 06:29:57 22° 294° (WNW) 06:36:07
O/OREOS (USA 219) 28 Aug 06:30:28 06:34:42 36° 64° (ENE) 06:38:58 437.305
VERMONT LUNAR 28 Aug 06:33:47 06:36:44 63° 157° (SSE) 06:39:42 437.305
JAS-2 28 Aug 06:36:18 06:41:14 20° 300° (WNW) 06:45:34 435.910
HORYU 2 28 Aug 06:36:47 06:40:46 32° 289° (WNW) 06:44:40 437.375
STRAND 1 28 Aug 06:43:41 06:45:23 12° 63° (ENE) 06:47:22 437.568
MOZHAYETS 4 28 Aug 06:52:57 06:55:20 13° 270° (W) 06:57:28
CUBESAT XI-V 28 Aug 06:55:17 06:59:44 53° 74° (ENE) 07:04:14 437.345
Cubesat XI-IV 28 Aug 07:25:34 07:30:00 27° 95° (E) 07:34:31 437.490
PHONESAT 2.4 28 Aug 07:34:29 07:37:00 20° 147° (SSE) 07:39:34 2401.200-2431.200
PRISM 28 Aug 07:35:49 07:39:04 24° 70° (ENE) 07:42:23 437.425
YUBILEINY 28 Aug 07:57:37 07:59:57 12° 57° (ENE) 08:03:03 435.215
VERMONT LUNAR 28 Aug 08:10:26 08:13:18 42° 353° (N) 08:16:10 437.305
O/OREOS (USA 219) 28 Aug 08:10:36 08:13:54 19° 258° (WSW) 08:17:02 437.305
CUTE-I 28 Aug 08:11:14 08:16:34 77° 102° (ESE) 08:21:53 437.470
Cosmos 2499 28 Aug 08:12:46 08:17:52 16° 299° (WNW) 08:22:34 435.465 / 435.565
AO-7 28 Aug 08:17:13 08:21:53 16° 307° (NW) 08:26:05 29.400- 29.500
STRAND 1 28 Aug 08:18:55 08:24:01 77° 259° (W) 08:29:09 437.568
CUBESAT XI-V 28 Aug 08:35:20 08:37:34 13° 270° (W) 08:39:32 437.345
Cosmos 2491 28 Aug 08:44:51 08:45:43 10° 78° (ENE) 08:47:28 435.465 / 435.565
BRITE-PL 28 Aug 08:45:23 08:50:12 32° 95° (E) 08:55:16 437.365/2234.400
AIST 1 28 Aug 09:03:18 09:06:37 23° 90° (E) 09:10:03
Cubesat XI-IV 28 Aug 09:05:23 09:10:08 33° 290° (WNW) 09:14:50 437.490
PRISM 28 Aug 09:11:04 09:14:26 23° 265° (W) 09:17:43 437.425
PHONESAT 2.4 28 Aug 09:11:14 09:14:38 88° 341° (NNW) 09:18:03 2401.200-2431.200
CUTE 1.7 + AOD 2 28 Aug 09:25:30 09:27:45 14° 91° (E) 09:30:11 437.475
GOMX 1 28 Aug 09:35:10 09:40:31 57° 99° (E) 09:45:56 467.674
CANX-2 28 Aug 09:37:57 09:41:18 23° 94° (E) 09:44:43 2200.000
VERMONT LUNAR 28 Aug 09:47:08 09:50:02 47° 10° (N) 09:52:57 437.305
CINEMA 3 28 Aug 09:48:26 09:51:56 19° 91° (E) 09:55:32 145.822/145.860
YUBILEINY 28 Aug 09:50:04 09:58:54 69° 80° (E) 10:07:39 435.215
CUTE-I 28 Aug 09:53:38 09:56:05 13° 297° (WNW) 09:58:13 437.470
M-CUBED/EXP-1 PRIME 28 Aug 09:55:39 09:56:52 11° 59° (ENE) 09:58:22 437.505
ISS 28 Aug 10:00:17 10:01:33 12° 129° (SE) 10:02:57 145.825
HO-68 28 Aug 10:02:06 10:09:00 48° 100° (E) 10:15:56 435.675
SEEDS 28 Aug 10:06:28 10:10:19 35° 97° (E) 10:14:08 437.485
CUBEBUG 2 28 Aug 10:07:43 10:09:23 12° 88° (E) 10:11:20 437.445
DOVE 4 28 Aug 10:08:53 10:14:12 75° 100° (E) 10:19:30 437.250
Cosmos 2504 28 Aug 10:15:54 10:17:49 11° 57° (ENE) 10:20:28 435.465 / 435.565
UWE-3 28 Aug 10:22:52 10:25:01 14° 89° (E) 10:27:24 435.000/436.395/437.385
BRITE-PL 28 Aug 10:23:51 10:28:38 32° 289° (WNW) 10:33:31 437.365/2234.400
UNISAT 6 28 Aug 10:25:56 10:28:12 14° 66° (ENE) 10:30:43 437.425
ZACube-1 28 Aug 10:26:54 10:27:11 10° 88° (E) 10:27:48 437.345
Cosmos 2491 28 Aug 10:32:38 10:41:16 71° 94° (E) 10:49:56 435.465 / 435.565
FUNcube-1 28 Aug 10:32:58 10:34:36 12° 89° (E) 10:36:28 145.935
COMPASS 1 28 Aug 10:35:03 10:39:10 60° 100° (E) 10:43:14 437.405
AIST 1 28 Aug 10:40:47 10:44:14 23° 285° (WNW) 10:47:35
AAUSAT CUBESAT 2 28 Aug 10:48:53 10:53:01 75° 101° (E) 10:57:08 437.432
PHONESAT 2.4 28 Aug 10:49:26 10:52:43 43° 357° (N) 10:55:59 2401.200-2431.200
TIGRISAT 28 Aug 10:54:27 10:58:16 27° 70° (ENE) 11:02:15 435.000
CUTE 1.7 + AOD 2 28 Aug 10:59:55 11:03:54 39° 287° (WNW) 11:07:48 437.475
QB50P2 28 Aug 11:06:55 11:08:36 12° 67° (ENE) 11:10:30 145.880/145.840
ANTELSAT 28 Aug 11:09:15 11:13:33 40° 73° (ENE) 11:17:59 437.575/2403.000
NANOSAT C BR1 28 Aug 11:10:58 11:12:50 13° 67° (ENE) 11:14:56 145.865
CANX-2 28 Aug 11:13:41 11:17:11 25° 289° (WNW) 11:20:36 2200.000
GOMX 1 28 Aug 11:14:33 11:18:13 18° 293° (WNW) 11:21:43 467.674
QB50P1 28 Aug 11:21:53 11:24:41 18° 69° (ENE) 11:27:39 145.935-145.965
VERMONT LUNAR 28 Aug 11:23:38 11:26:31 46° 205° (SSW) 11:29:24 437.305
SO-50 28 Aug 11:23:51 11:27:54 25° 48° (NE) 11:31:57 436.795
CINEMA 3 28 Aug 11:24:35 11:29:20 42° 287° (WNW) 11:33:56 145.822/145.860
AUBIESAT-1 28 Aug 11:25:00 11:29:42 80° 72° (ENE) 11:34:28 437.475
Oscar 11 28 Aug 11:25:22 11:29:42 83° 102° (ESE) 11:33:59 145.826/435.025
M-CUBED/EXP-1 PRIME 28 Aug 11:26:15 11:31:01 86° 253° (WSW) 11:35:51 437.505
PCSat 28 Aug 11:29:28 11:30:00 10° 40° (NE) 11:30:51 145.827
UKube-1 28 Aug 11:33:12 11:33:25 10° 89° (E) 11:33:56 .
ISS 28 Aug 11:34:27 11:37:38 55° 322° (NW) 11:40:50 145.825
DANDE 28 Aug 11:39:48 11:44:52 20° 68° (ENE) 11:50:49 436.750
CUSAT 1 28 Aug 11:40:44 11:47:07 30° 71° (ENE) 11:54:11 437.405
DELFI C3 28 Aug 11:41:41 11:45:42 85° 101° (E) 11:49:41 145.870
CUBEBUG 2 28 Aug 11:41:53 11:46:33 59° 285° (WNW) 11:51:04 437.445
HUMSAT D 28 Aug 11:42:23 11:46:04 29° 95° (E) 11:49:45 437.325/437.525
SEEDS 28 Aug 11:43:04 11:45:51 17° 291° (WNW) 11:48:28 437.485
VELOX 1 28 Aug 11:48:26 11:49:33 11° 89° (E) 11:50:57 145.980
YUBILEINY 28 Aug 11:48:27 11:55:01 23° 277° (W) 12:01:07 435.215
DOVE 4 28 Aug 11:48:44 11:51:22 13° 295° (WNW) 11:53:43 437.250
HO-68 28 Aug 11:50:20 11:56:30 31° 296° (WNW) 12:02:29 435.675
UWE-3 28 Aug 11:57:26 12:01:56 50° 286° (WNW) 12:06:17 435.000/436.395/437.385
ZACube-1 28 Aug 11:59:35 12:04:05 63° 285° (WNW) 12:08:27 437.345
UNISAT 6 28 Aug 11:59:58 12:04:31 56° 260° (W) 12:09:10 437.425
Cosmos 2504 28 Aug 12:03:38 12:12:09 67° 80° (E) 12:20:10 435.465 / 435.565
FUNcube-1 28 Aug 12:06:55 12:11:20 54° 286° (WNW) 12:15:38 145.935
COMPASS 1 28 Aug 12:13:49 12:14:21 10° 294° (WNW) 12:14:38 437.405
POLYITAN 1 28 Aug 12:19:37 12:23:52 87° 77° (ENE) 12:28:11 437.675
POPSAT HIP 1 28 Aug 12:23:52 12:28:06 85° 257° (WSW) 12:32:23 437.405
ESTCUBE 1 28 Aug 12:25:22 12:28:53 23° 94° (E) 12:32:30 437.505/2401.250
PHONESAT 2.4 28 Aug 12:27:29 12:30:52 65° 13° (NNE) 12:34:16 2401.200-2431.200
DUCHIFAT 1 28 Aug 12:28:00 12:32:12 79° 258° (WSW) 12:36:28 145.980
TIGRISAT 28 Aug 12:30:58 12:34:57 27° 265° (W) 12:38:55 435.000
Cosmos 2491 28 Aug 12:32:27 12:39:05 22° 294° (WNW) 12:45:20 435.465 / 435.565
QB50P2 28 Aug 12:39:56 12:44:04 52° 260° (W) 12:48:15 145.880/145.840
NANOSAT C BR1 28 Aug 12:44:12 12:48:17 48° 261° (W) 12:52:25 145.865
DX 1 28 Aug 12:46:42 12:51:06 90° 310° (NW) 12:55:29 434.975-435.025
ANTELSAT 28 Aug 12:47:15 12:50:31 18° 268° (W) 12:53:40 437.575/2403.000
50 SAT 28 Aug 12:48:39 12:52:32 76° 101° (ESE) 12:56:22 437.505
AISAT 28 Aug 12:52:39 12:57:08 67° 102° (ESE) 13:01:35 437.250
BUGSAT 1 28 Aug 12:53:22 12:57:22 63° 259° (W) 13:01:25 437.445
QB50P1 28 Aug 12:56:27 13:00:19 34° 263° (W) 13:04:11 145.935-145.965
SO-50 28 Aug 13:04:01 13:08:36 38° 246° (WSW) 13:12:59 436.795
CUBEBUG 1 28 Aug 13:05:39 13:09:58 54° 100° (E) 13:14:18 437.445
UKube-1 28 Aug 13:05:42 13:10:00 60° 286° (WNW) 13:14:16 .
PCSat 28 Aug 13:09:12 13:14:36 66° 61° (ENE) 13:19:59 145.827
ISS 28 Aug 13:13:37 13:14:38 11° 340° (NNW) 13:15:36 145.825
SPROUT 28 Aug 13:17:22 13:20:36 21° 94° (E) 13:23:55 437.525
HUMSAT D 28 Aug 13:18:25 13:21:38 21° 291° (WNW) 13:24:44 437.325/437.525
DANDE 28 Aug 13:21:11 13:28:34 81° 263° (W) 13:37:04 436.750
VELOX 1 28 Aug 13:22:08 13:26:32 58° 286° (WNW) 13:30:54 145.980
CUSAT 1 28 Aug 13:22:30 13:29:59 58° 265° (W) 13:37:59 437.405
Oscar 19 28 Aug 13:26:55 13:30:27 20° 67° (ENE) 13:34:10 437.125/150
Cosmos 2504 28 Aug 13:57:16 14:03:38 23° 277° (W) 14:09:24 435.465 / 435.565
ESTCUBE 1 28 Aug 14:01:52 14:05:46 29° 289° (WNW) 14:09:36 437.505/2401.250
PHONESAT 2.4 28 Aug 14:05:34 14:08:38 31° 210° (SSW) 14:11:43 2401.200-2431.200
ITAMSAT 1 28 Aug 14:18:05 14:20:50 15° 65° (ENE) 14:23:50 435.822/435.867
AISAT 28 Aug 14:31:54 14:33:12 11° 295° (WNW) 14:34:13 437.250
TISAT 1 28 Aug 14:36:04 14:40:22 83° 281° (WNW) 14:44:37 437.305
GONETS M04 28 Aug 14:37:04 14:44:36 32° 71° (ENE) 14:52:20
ITUPSAT 1 28 Aug 14:39:12 14:41:47 15° 91° (E) 14:44:36 437.325
CUBEBUG 1 28 Aug 14:43:49 14:45:55 13° 293° (WNW) 14:47:48 437.445
SPROUT 28 Aug 14:52:53 14:56:42 30° 289° (WNW) 15:00:27 437.525
PCSat 28 Aug 14:54:31 14:57:31 14° 255° (WSW) 15:00:13 145.827
JAS-2 28 Aug 14:58:14 15:04:26 30° 65° (ENE) 15:11:03 435.910
Oscar 19 28 Aug 15:04:33 15:09:29 46° 261° (W) 15:14:28 437.125/150
DANDE 28 Aug 15:07:11 15:11:12 14° 274° (W) 15:14:51 436.750
BEESAT 28 Aug 15:13:34 15:17:56 36° 97° (E) 15:22:19 436.000
Gurwin Techsat 1B 28 Aug 15:14:27 15:19:40 65° 75° (ENE) 15:24:58 435.225
AO-7 28 Aug 15:27:51 15:34:08 26° 59° (ENE) 15:40:41 29.400- 29.500
SWISSCUBE 28 Aug 15:38:39 15:43:25 76° 103° (ESE) 15:48:10 437.505
KKS-1 28 Aug 15:50:49 15:52:50 13° 90° (E) 15:55:05 437.445
ITAMSAT 1 28 Aug 15:54:46 15:59:54 62° 259° (W) 16:05:02 435.822/435.867
HORYU 2 28 Aug 15:57:36 16:00:12 16° 67° (ENE) 16:02:59 437.375
Cosmos 2499 28 Aug 16:09:53 16:17:23 32° 70° (ENE) 16:24:40 435.465 / 435.565
BEESAT 3 28 Aug 16:11:14 16:14:24 23° 112° (ESE) 16:17:41 437.485
ITUPSAT 1 28 Aug 16:15:24 16:20:01 49° 287° (WNW) 16:24:35 437.325
BEESAT 2 28 Aug 16:17:50 16:20:48 20° 112° (ESE) 16:23:54 435.950
ISS 28 Aug 16:28:50 16:30:01 12° 20° (NNE) 16:31:15 145.825
GONETS M04 28 Aug 16:33:23 16:41:49 52° 270° (W) 16:50:11
JAS-2 28 Aug 16:41:41 16:49:01 57° 262° (W) 16:56:44 435.910
JUGNU 28 Aug 16:51:34 16:54:28 14° 177° (S) 16:57:22 437.505
BEESAT 28 Aug 16:51:58 16:55:34 21° 292° (WNW) 16:59:01 436.000
RS-15 28 Aug 16:55:32 17:05:11 40° 108° (ESE) 17:15:21 29.354- 29.394
Gurwin Techsat 1B 28 Aug 16:57:27 17:00:12 14° 271° (W) 17:02:39 435.225
MOZHAYETS 4 28 Aug 17:12:12 17:14:35 14° 90° (E) 17:17:10
STARS 28 Aug 17:16:10 17:20:38 74° 102° (ESE) 17:25:04 437.465
AO-7 28 Aug 17:17:59 17:26:19 70° 256° (WSW) 17:34:39 29.400- 29.500
SWISSCUBE 28 Aug 17:19:30 17:20:42 11° 296° (WNW) 17:21:37 437.505
KKS-1 28 Aug 17:25:27 17:29:49 50° 286° (WNW) 17:34:08 437.445
HORYU 2 28 Aug 17:32:11 17:36:29 45° 261° (W) 17:40:49 437.375
BEESAT 3 28 Aug 17:48:41 17:52:13 28° 308° (NW) 17:55:45 437.485
SRMSAT 28 Aug 17:54:48 17:57:12 13° 172° (S) 17:59:40 437.500
BEESAT 2 28 Aug 17:54:58 17:58:40 31° 307° (NW) 18:02:22 435.950
CUTE-I 28 Aug 17:54:59 17:56:41 12° 63° (ENE) 17:58:42 437.470
Cosmos 2499 28 Aug 18:02:35 18:10:55 50° 270° (W) 18:18:38 435.465 / 435.565
ISS 28 Aug 18:03:46 18:06:59 61° 38° (NE) 18:10:11 145.825
AIST 2 28 Aug 18:05:10 18:09:21 62° 117° (ESE) 18:13:33 435.215
JUGNU 28 Aug 18:40:08 18:42:40 13° 187° (S) 18:45:09 437.505
Cubesat XI-IV 28 Aug 18:45:18 18:50:05 37° 71° (ENE) 18:54:58 437.490
MOZHAYETS 4 28 Aug 18:47:44 18:52:07 46° 286° (WNW) 18:56:27
CUBESAT XI-V 28 Aug 18:55:25 18:58:08 16° 91° (E) 19:01:04 437.345
RS-15 28 Aug 19:06:37 19:17:18 55° 309° (NW) 19:28:21 29.354- 29.394
AO-7 28 Aug 19:19:13 19:20:46 10° 275° (W) 19:21:26 29.400- 29.500
CUTE-I 28 Aug 19:30:49 19:36:09 83° 257° (WSW) 19:41:30 437.470
ISS 28 Aug 19:42:06 19:43:03 11° 232° (SW) 19:43:50 145.825
SRMSAT 28 Aug 19:42:31 19:45:34 14° 182° (S) 19:48:38 437.500
AIST 2 28 Aug 19:46:03 19:48:21 14° 315° (NW) 19:50:31 435.215
BRITE-PL 28 Aug 19:55:18 19:58:34 22° 69° (ENE) 20:02:07 437.365/2234.400
Cubesat XI-IV 28 Aug 20:25:55 20:30:18 25° 266° (W) 20:34:34 437.490
HO-68 28 Aug 20:28:55 20:34:46 29° 64° (ENE) 20:40:48 435.675
CANX-2 28 Aug 20:29:55 20:32:01 14° 68° (ENE) 20:34:18 2200.000
CUBESAT XI-V 28 Aug 20:31:25 20:35:50 44° 287° (WNW) 20:40:14 437.345
STRAND 1 28 Aug 20:31:53 20:36:43 43° 98° (E) 20:41:34 437.568
O/OREOS (USA 219) 28 Aug 20:40:01 20:44:29 65° 108° (ESE) 20:49:01 437.305
GOMX 1 28 Aug 20:41:35 20:45:41 42° 72° (ENE) 20:50:06 467.674
Cosmos 2491 28 Aug 20:46:23 20:53:47 31° 70° (ENE) 21:01:26 435.465 / 435.565
AIST 1 28 Aug 20:49:01 20:53:19 64° 81° (E) 20:57:37
CINEMA 3 28 Aug 20:49:07 20:51:16 14° 65° (ENE) 20:53:42 145.822/145.860
PRISM 28 Aug 20:54:28 20:58:28 52° 100° (E) 21:02:29 437.425
SEEDS 28 Aug 20:56:52 20:59:52 20° 70° (ENE) 21:03:00 437.485
YUBILEINY 28 Aug 20:56:52 21:00:34 14° 79° (E) 21:04:58 435.215
DOVE 4 28 Aug 21:12:16 21:16:36 54° 74° (ENE) 21:21:17 437.250
COMPASS 1 28 Aug 21:24:02 21:27:42 30° 72° (ENE) 21:31:26 437.405
RS-15 28 Aug 21:25:46 21:33:18 19° 339° (NNW) 21:40:44 29.354- 29.394
SRMSAT 28 Aug 21:33:20 21:33:57 10° 192° (SSW) 21:34:27 437.500
BRITE-PL 28 Aug 21:33:23 21:37:02 27° 266° (W) 21:40:48 437.365/2234.400
AAUSAT CUBESAT 2 28 Aug 21:37:14 21:41:04 36° 73° (ENE) 21:44:57 437.432
CUTE 1.7 + AOD 2 28 Aug 21:49:47 21:54:05 78° 258° (WSW) 21:58:23 437.475
CANX-2 28 Aug 22:03:25 22:07:34 47° 261° (W) 22:11:44 2200.000
STRAND 1 28 Aug 22:11:53 22:15:39 21° 293° (WNW) 22:19:17 437.568
HO-68 28 Aug 22:15:17 22:22:13 51° 260° (W) 22:29:09 435.675
Oscar 11 28 Aug 22:17:40 22:21:50 47° 74° (ENE) 22:26:02 145.826/435.025
GOMX 1 28 Aug 22:21:30 22:24:11 15° 271° (W) 22:26:46 467.674
O/OREOS (USA 219) 28 Aug 22:22:34 22:24:29 12° 306° (NW) 22:26:10 437.305
CINEMA 3 28 Aug 22:23:26 22:27:56 58° 260° (W) 22:32:41 145.822/145.860
DELFI C3 28 Aug 22:26:24 22:30:06 36° 73° (ENE) 22:33:51 145.870
SEEDS 28 Aug 22:31:39 22:35:29 31° 264° (W) 22:39:15 437.485
PRISM 28 Aug 22:32:02 22:33:30 11° 294° (WNW) 22:34:45 437.425
HUMSAT D 28 Aug 22:32:39 22:35:18 17° 68° (ENE) 22:38:08 437.325/437.525
CUBEBUG 2 28 Aug 22:37:08 22:41:42 87° 84° (E) 22:46:26 437.445
Cosmos 2491 28 Aug 22:42:39 22:51:04 53° 269° (W) 22:59:25 435.465 / 435.565
YUBILEINY 28 Aug 22:47:29 22:56:15 84° 95° (E) 23:05:07 435.215
UWE-3 28 Aug 22:51:31 22:56:03 84° 257° (WSW) 23:00:44 435.000/436.395/437.385
ZACube-1 28 Aug 22:52:35 22:57:04 76° 76° (ENE) 23:01:40 437.345
DOVE 4 28 Aug 22:52:54 22:54:54 12° 273° (W) 22:56:41 437.250
FUNcube-1 28 Aug 22:59:36 23:04:06 88° 77° (ENE) 23:08:42 145.935
COMPASS 1 28 Aug 23:00:20 23:03:26 19° 267° (W) 23:06:24 437.405
AAUSAT CUBESAT 2 28 Aug 23:14:08 23:16:49 16° 268° (W) 23:19:20 437.432
ESTCUBE 1 28 Aug 23:23:37 23:26:25 17° 68° (ENE) 23:29:23 437.505/2401.250
50 SAT 28 Aug 23:29:54 23:33:19 29° 72° (ENE) 23:36:48 437.505
DX 1 28 Aug 23:39:53 23:44:06 57° 74° (ENE) 23:48:23 434.975-435.025
RS-15 28 Aug 23:45:18 23:52:07 17° 15° (NNE) 23:59:24 29.354- 29.394
AISAT 28 Aug 23:48:06 23:52:16 44° 73° (ENE) 23:56:29 437.250
UNISAT 6 28 Aug 23:54:33 23:58:46 36° 97° (E) 00:02:54 437.425
Oscar 11 28 Aug 23:56:07 23:58:19 13° 270° (W) 00:00:18 145.826/435.025
UKube-1 28 Aug 23:57:53 00:02:11 84° 77° (ENE) 00:06:31 .
CUBEBUG 1 28 Aug 23:59:44 00:03:34 33° 72° (ENE) 00:07:28 437.445
DELFI C3 29 Aug 00:02:53 00:05:19 15° 268° (W) 00:07:36 145.870
HUMSAT D 29 Aug 00:06:42 00:10:45 38° 263° (W) 00:14:48 437.325/437.525
POLYITAN 1 29 Aug 00:08:22 00:11:09 17° 92° (E) 00:14:04 437.675
SPROUT 29 Aug 00:10:46 00:12:35 13° 67° (ENE) 00:14:36 437.525
POPSAT HIP 1 29 Aug 00:12:13 00:15:10 19° 93° (E) 00:18:16 437.405
DUCHIFAT 1 29 Aug 00:15:43 00:18:47 19° 93° (E) 00:21:57 145.980
VELOX 1 29 Aug 00:17:05 00:21:29 88° 248° (WSW) 00:25:55 145.980
TIGRISAT 29 Aug 00:24:16 00:28:54 77° 102° (ESE) 00:33:23 435.000
QB50P2 29 Aug 00:27:41 00:31:24 29° 96° (E) 00:35:11 145.880/145.840
Cosmos 2504 29 Aug 00:30:09 00:37:44 53° 90° (E) 00:45:54 435.465 / 435.565
NANOSAT C BR1 29 Aug 00:31:24 00:35:10 30° 96° (E) 00:38:59 145.865
BUGSAT 1 29 Aug 00:38:14 00:41:29 22° 94° (E) 00:44:51 437.445
ANTELSAT 29 Aug 00:39:57 00:44:32 69° 284° (WNW) 00:48:58 437.575/2403.000
AUBIESAT-1 29 Aug 00:43:02 00:47:02 89° 106° (ESE) 00:50:42 437.475
QB50P1 29 Aug 00:43:21 00:47:28 43° 98° (E) 00:51:34 145.935-145.965
M-CUBED/EXP-1 PRIME 29 Aug 00:44:59 00:49:03 71° 289° (WNW) 00:52:44 437.505
CUSAT 1 29 Aug 00:47:52 00:49:51 15° 84° (E) 00:52:17 437.405
YUBILEINY 29 Aug 00:48:27 00:54:24 18° 297° (WNW) 00:59:53 435.215
ESTCUBE 1 29 Aug 00:58:46 01:03:00 40° 262° (W) 01:07:14 437.505/2401.250
50 SAT 29 Aug 01:05:08 01:07:54 18° 267° (W) 01:10:33 437.505
DX 1 29 Aug 01:19:45 01:20:48 11° 271° (W) 01:21:33 434.975-435.025
TISAT 1 29 Aug 01:25:41 01:29:44 52° 74° (ENE) 01:33:52 437.305
AISAT 29 Aug 01:26:36 01:29:06 14° 269° (W) 01:31:25 437.250
UNISAT 6 29 Aug 01:31:56 01:35:17 20° 292° (WNW) 01:38:27 437.425
CUBEBUG 1 29 Aug 01:36:57 01:40:02 18° 267° (W) 01:42:59 437.445
SO-50 29 Aug 01:38:32 01:40:08 12° 108° (ESE) 01:42:04 436.795
POLYITAN 1 29 Aug 01:43:14 01:47:12 35° 288° (WNW) 01:51:06 437.675
SPROUT 29 Aug 01:44:05 01:48:15 51° 261° (W) 01:52:27 437.525
ITUPSAT 1 29 Aug 01:44:27 01:46:56 15° 66° (ENE) 01:49:38 437.325
POPSAT HIP 1 29 Aug 01:47:15 01:51:08 33° 288° (WNW) 01:54:57 437.405
DUCHIFAT 1 29 Aug 01:50:50 01:54:39 31° 288° (WNW) 01:58:23 145.980
